[[{"header":{"parameterUnit":"m.s-1","parameterCategory":1,"la1":30.2991,"la2":30.254,"lo1":-89.0895,"lo2":-89.0444,"dy":0.0017,"dx":0.0017,"nx":28,"ny":28,"refTime":"2024-02-09T03:00:00:Z","depth":0,"parameterNumber":2,"parameterNumberName":"U-component_of_WINDS"},"data":[0,0,0,0,0,0,0,0,0,0,0,0,0,0,0,0,0,0,0,0,0,0,0,0,0,0,0,0,0,0,0,0,0,0,0,0,0,0,0,0,0,0,0,0,0,0,0,0,0,0,0,0,0,0,0,0,0,0,-3.6367,-3.6368,0,-3.6499,-3.65,-3.6502,-3.651,-3.6508,-3.6507,-3.6505,-3.6641,-3.6646,-3.6651,0,0,0,0,0,0,0,0,0,0,0,0,0,-3.6123,-3.6128,-3.6366,-3.6368,-3.637,-3.6498,-3.65,-3.6502,-3.651,-3.6508,-3.6506,-3.6504,-3.6639,-3.6645,-3.6651,0,0,0,0,0,0,0,0,0,0,0,0,0,-3.6239,-3.6129,-3.6366,-3.6389,-3.6393,-3.6498,-3.65,-3.6503,-3.651,-3.6508,-3.6506,-3.6504,-3.6637,-3.6645,-3.6652,-3.6744,0,0,-3.6675,-3.6678,0,0,0,0,0,0,0,0,-3.6233,-3.6248,-3.6384,-3.6388,-3.6392,-3.6485,-3.6464,-3.6584,-3.6511,-3.6466,-3.6505,-3.6502,-3.6591,-3.6602,-3.6632,-3.675,-3.6756,-3.6676,-3.668,-3.6684,-3.6686,0,0,0,0,0,0,0,-3.6225,-3.6243,-3.6419,-3.6386,-3.6391,-3.6394,-3.6408,-3.6487,-3.6539,-3.6469,-3.647,-3.6486,-3.6593,-3.6625,-3.6635,-3.6758,-3.6676,-3.6682,-3.6687,-3.669,-3.6961,-3.6963,0,0,0,0,0,0,-3.6212,-3.6236,-3.6415,-3.6423,-3.6305,-3.64,-3.6416,-3.6458,-3.6539,-3.6549,-3.6487,-3.6486,-3.6613,-3.6627,-3.664,-3.6754,-3.6684,-3.6691,-3.6695,-3.6958,-3.6961,-3.6964,0,0,0,0,0,0,-3.6207,-3.6228,-3.6409,-3.633,-3.6353,-3.6406,-3.6454,-3.6461,-3.6493,-3.6552,-3.6562,-3.651,-3.6612,-3.663,-3.6719,-3.6758,-3.6694,-3.6701,-3.6955,-3.6959,-3.6963,-3.6981,0,0,0,0,0,0,-3.62,-3.6226,-3.6261,-3.633,-3.6357,-3.6485,-3.6456,-3.6466,-3.6506,-3.6505,-3.6576,-3.6586,-3.6611,-3.6707,-3.6726,-3.6768,-3.6707,-3.6951,-3.6957,-3.6961,-3.6977,-3.6985,-3.6992,0,0,0,0,0,-3.6191,-3.626,-3.6262,-3.6284,-3.6402,-3.6487,-3.6502,-3.653,-3.6509,-3.6545,-3.6584,-3.6584,-3.6751,-3.6716,-3.6737,-3.6782,-3.6949,-3.6955,-3.6961,-3.6973,-3.6983,-3.6991,0,0,0,0,0,0,-3.6193,-3.627,-3.6273,-3.6366,-3.642,-3.6488,-3.6534,-3.6539,-3.66,-3.6596,-3.6628,-3.6644,-3.6733,-3.6767,-3.6726,-3.6876,-3.6848,-3.6859,-3.685,-3.686,-3.6867,-3.6857,-3.6713,0,0,0,0,0,-3.6205,-3.6267,-3.6331,-3.6407,-3.6434,-3.648,-3.6518,-3.6535,-3.6592,-3.6614,-3.6659,-3.6715,-3.678,-3.6822,-3.6886,-3.6983,-3.6999,-3.7024,-3.7031,-3.7037,-3.7045,-3.71,-3.7112,-3.6984,-3.6984,-3.6984,0,0,-3.6229,-3.6278,-3.6315,-3.6409,-3.6453,-3.6517,-3.6498,-3.6567,-3.6616,-3.6625,-3.6711,-3.6747,-3.6811,-3.6905,-3.6948,-3.6935,-3.7085,-3.7045,-3.7049,-3.7054,-3.7108,-3.712,-3.713,-3.6988,-3.6987,-3.6986,0,0,-3.6305,-3.6349,-3.6418,-3.6462,-3.6529,-3.6559,-3.6576,-3.6644,-3.6667,-3.6755,-3.6764,-3.6823,-3.6934,-3.698,-3.7018,-3.7115,-3.7118,-3.7135,-3.7174,-3.7227,-3.7237,-3.7246,-3.7281,-3.7293,-3.7144,-3.7144,-3.7144,0,-3.6326,-3.6423,-3.6453,-3.6522,-3.6563,-3.6576,-3.6646,-3.6688,-3.6772,-3.6801,-3.6786,-3.6928,-3.6972,-3.7077,-3.7101,-3.7131,-3.7152,-3.7126,-3.7233,-3.7242,-3.7251,-3.7285,-3.7298,-3.7145,-3.7145,-3.7145,-3.7145,0,-3.6446,-3.6514,-3.6562,-3.6643,-3.669,-3.6759,-3.68,-3.6845,-3.6859,-3.6891,-3.6981,-3.7035,-3.711,-3.7136,-3.715,-3.7244,-3.7234,-3.7226,-3.7198,-3.7265,-3.7297,-3.731,-3.7148,-3.7147,-3.7147,-3.7146,0,0,-3.6525,-3.6623,-3.664,-3.6678,-3.6754,-3.6807,-3.6878,-3.6951,-3.6989,-3.7048,-3.7108,-3.7204,-3.7197,-3.7241,-3.726,-3.7307,-3.7381,-3.7293,-3.7295,-3.7307,-3.7488,-3.7493,-3.7507,-3.7384,-3.7387,-3.7389,-3.7483,0,-3.6609,-3.6735,-3.6765,-3.6873,-3.6936,-3.6951,-3.7013,-3.7067,-3.7099,-3.7159,-3.7195,-3.7262,-3.7248,-3.7275,-3.7322,-3.7362,-3.7418,-3.7356,-3.7441,-3.7444,-3.7423,-3.7524,-3.7529,-3.7615,-3.7496,-3.7498,-3.7499,0,-3.6724,-3.6785,-3.6899,-3.6968,-3.6996,-3.7051,-3.7122,-3.7179,-3.7241,-3.7261,-3.7311,-3.7327,-3.7402,-3.7372,-3.7478,-3.7435,-3.7472,-3.7498,-3.7502,-3.7509,-3.7474,-3.7534,-3.7643,-3.7655,-3.7519,-3.7518,-3.7516,0,-3.6769,-3.688,-3.6964,-3.6996,-3.7078,-3.7117,-3.7153,-3.7213,-3.7256,-3.7319,-3.7347,-3.7418,-3.7456,-3.7511,-3.7546,-3.7521,-3.7649,-3.7622,-3.7668,-3.7667,-3.7693,-3.769,-3.7808,-3.7719,-3.7719,-3.7718,-3.7718,0,-3.6859,-3.6928,-3.6985,-3.7036,-3.7115,-3.715,-3.7227,-3.7264,-3.7318,-3.7377,-3.7394,-3.745,-3.7493,-3.7555,-3.7583,-3.7666,-3.7683,-3.7703,-3.7709,-3.77,-3.7698,-3.7724,-3.7718,-3.7722,-3.7721,-3.7721,-3.772,0,-3.6922,-3.6963,-3.7054,-3.7126,-3.7146,-3.7201,-3.7262,-3.7313,-3.7347,-3.7422,-3.7442,-3.7496,-3.757,-3.761,-3.7703,-3.7722,-3.7815,-3.7819,-3.7793,-3.7796,-3.784,-3.7835,-3.7978,-3.7999,-3.7896,-3.7897,-3.7898,0,-3.6976,-3.703,-3.7107,-3.7148,-3.7185,-3.7251,-3.7295,-3.7333,-3.7378,-3.7455,-3.7497,-3.7572,-3.7633,-3.7751,-3.7798,-3.787,-3.7875,-3.792,-3.7886,-3.7876,-3.7875,-3.7871,-3.7877,-3.7926,-3.7927,-3.7927,-3.7928,0,-3.7067,-3.7085,-3.7148,-3.7219,-3.7272,-3.7329,-3.7387,-3.7419,-3.7467,-3.7517,-3.7593,-3.7641,-3.7736,-3.7811,-3.7886,-3.7925,-3.7935,-3.7939,-3.7953,-3.7944,-3.7927,-3.7937,-3.7809,-3.7935,-3.7934,-3.7934,-3.7933,-3.7933,-3.7127,-3.7176,-3.7239,-3.7309,-3.7356,-3.741,-3.7461,-3.7503,-3.7566,-3.7646,-3.7665,-3.7745,-3.7809,-3.7911,-3.7952,-3.8016,-3.8007,-3.8028,-3.8034,-3.8038,-3.8039,-3.7919,-3.803,-3.803,-3.803,-3.803,-3.803,0,-3.7219,-3.7261,-3.7325,-3.7405,-3.746,-3.7466,-3.753,-3.7576,-3.7646,-3.7704,-3.7765,-3.7853,-3.7926,-3.7981,-3.8056,-3.8096,-3.8103,-3.8115,-3.8111,-3.812,-3.8043,-3.8022,-3.8108,-3.8108,-3.8108,-3.8108,-3.8108,-3.8108,-3.7273,-3.7356,-3.7382,-3.749,-3.7532,-3.761,-3.7646,-3.7696,-3.7743,-3.784,-3.7901,-3.7936,-3.7994,-3.8073,-3.8141,-3.8155,-3.8182,-3.8193,-3.8208,-3.8134,-3.8125,-3.8117,-3.8098,-3.8199,-3.8199,-3.828,-3.828,-3.8281]},{"header":{"parameterUnit":"m.s-1","parameterCategory":1,"la1":30.2991,"la2":30.254,"lo1":-89.0895,"lo2":-89.0444,"dy":0.0017,"dx":0.0017,"nx":28,"ny":28,"refTime":"2024-02-09T03:00:00:Z","depth":0,"parameterNumber":3,"parameterNumberName":"V-component_of_WINDS"},"data":[0,0,0,0,0,0,0,0,0,0,0,0,0,0,0,0,0,0,0,0,0,0,0,0,0,0,0,0,0,0,0,0,0,0,0,0,0,0,0,0,0,0,0,0,0,0,0,0,0,0,0,0,0,0,0,0,0,0,2.9379,2.9381,0,2.9489,2.9491,2.9492,2.9505,2.9504,2.9503,2.9502,2.9613,2.9617,2.9621,0,0,0,0,0,0,0,0,0,0,0,0,0,2.9181,2.9185,2.9379,2.9381,2.9382,2.9489,2.9491,2.9492,2.9505,2.9504,2.9503,2.9501,2.9612,2.9616,2.9621,0,0,0,0,0,0,0,0,0,0,0,0,0,2.9277,2.9186,2.9379,2.9401,2.9405,2.9489,2.9491,2.9493,2.9505,2.9504,2.9502,2.9501,2.961,2.9616,2.9622,2.9691,0,0,2.964,2.9643,0,0,0,0,0,0,0,0,2.9271,2.9284,2.9397,2.94,2.9404,2.9482,2.9462,2.9559,2.9506,2.9467,2.9502,2.95,2.9571,2.958,2.9604,2.9696,2.9701,2.964,2.9644,2.9647,2.9648,0,0,0,0,0,0,0,2.9265,2.928,2.9423,2.9398,2.9403,2.9406,2.9418,2.948,2.9526,2.947,2.9472,2.9485,2.9572,2.9598,2.9606,2.9702,2.964,2.9646,2.9649,2.9652,2.9861,2.9863,0,0,0,0,0,0,2.9254,2.9274,2.9419,2.9426,2.9332,2.9411,2.9424,2.9458,2.9526,2.9535,2.9486,2.9485,2.9589,2.96,2.961,2.9699,2.9647,2.9652,2.9656,2.9859,2.9862,2.9864,0,0,0,0,0,0,2.925,2.9267,2.9415,2.9351,2.937,2.9416,2.9454,2.9461,2.9487,2.9538,2.9546,2.9504,2.9588,2.9602,2.9672,2.9703,2.9655,2.966,2.9857,2.986,2.9863,2.9874,0,0,0,0,0,0,2.9244,2.9265,2.9292,2.9351,2.9373,2.9474,2.9456,2.9465,2.9498,2.9497,2.9557,2.9565,2.9588,2.9663,2.9678,2.971,2.9665,2.9854,2.9858,2.9862,2.9871,2.9877,2.9882,0,0,0,0,0,2.9237,2.9289,2.9293,2.931,2.9407,2.9476,2.9488,2.9514,2.95,2.9528,2.956,2.9563,2.9697,2.967,2.9687,2.9721,2.9853,2.9857,2.9862,2.9869,2.9876,2.9882,0,0,0,0,0,0,2.9231,2.9297,2.9302,2.9375,2.942,2.9478,2.9513,2.952,2.9569,2.9567,2.9596,2.961,2.9679,2.9707,2.9676,2.9794,2.9773,2.9781,2.9773,2.978,2.9786,2.9778,2.967,0,0,0,0,0,2.9238,2.9288,2.9344,2.9403,2.9425,2.9465,2.9496,2.9513,2.956,2.9579,2.9616,2.9662,2.9715,2.9749,2.98,2.9875,2.989,2.9907,2.9913,2.9917,2.9924,2.9969,2.9979,2.9879,2.9879,2.9878,0,0,2.9253,2.9296,2.9325,2.9403,2.9439,2.9492,2.9481,2.9536,2.9576,2.9587,2.9656,2.9685,2.9739,2.9812,2.9847,2.9838,2.9955,2.9923,2.9926,2.9931,2.9975,2.9984,2.9993,2.9882,2.9881,2.9881,0,0,2.9308,2.9344,2.9399,2.9437,2.9494,2.9521,2.9534,2.9592,2.9612,2.9682,2.9693,2.974,2.983,2.9868,2.99,2.9973,2.9979,2.9989,3.0018,3.0062,3.007,3.0077,3.0106,3.0115,2.9995,2.9995,2.9995,0,2.932,2.9399,2.9426,2.9483,2.9518,2.9532,2.9589,2.9623,2.9693,2.9717,2.9706,2.9822,2.9858,2.9943,2.9961,2.9985,3.0003,2.9982,3.0066,3.0074,3.0081,3.0109,3.0119,2.9997,2.9996,2.9996,2.9996,0,2.9413,2.9468,2.9505,2.9575,2.9614,2.9669,2.9706,2.9742,2.9756,2.9784,2.9857,2.9902,2.9964,2.9985,2.9997,3.0072,3.0066,3.006,3.0041,3.0091,3.0118,3.0129,2.9998,2.9998,2.9997,2.9997,0,0,2.9465,2.9551,2.9565,2.9598,2.9663,2.9706,2.9764,2.9826,2.9858,2.9906,2.9956,3.0033,3.003,3.0065,3.0083,3.0121,3.018,3.0112,3.0113,3.0125,3.0269,3.0274,3.0286,3.0184,3.0186,3.0188,3.0266,0,2.953,2.9634,2.9661,2.975,2.9803,2.9818,2.9869,2.9915,2.9944,2.9993,3.0024,3.008,3.0069,3.0092,3.013,3.0165,3.021,3.0159,3.0233,3.0235,3.0221,3.03,3.0305,3.0376,3.0276,3.0278,3.0279,0,2.9618,2.9671,2.9765,2.9827,2.985,2.9895,2.9956,3.0002,3.0055,3.0074,3.0115,3.013,3.0193,3.0169,3.0257,3.0222,3.0253,3.0275,3.0279,3.0288,3.0261,3.0313,3.0399,3.041,3.0295,3.0294,3.0293,0,2.9651,2.9745,2.9815,2.9842,2.9914,2.9946,2.9978,3.0029,3.0066,3.0119,3.0144,3.0203,3.0235,3.0281,3.0312,3.0292,3.0398,3.0377,3.0417,3.0416,3.0439,3.0438,3.0534,3.0456,3.0456,3.0456,3.0456,0,2.9721,2.9779,2.9831,2.9874,2.994,2.9971,3.0036,3.0068,3.0114,3.0165,3.0181,3.0228,3.0265,3.0317,3.0342,3.0413,3.0426,3.0444,3.045,3.0444,3.0442,3.0466,3.0463,3.0459,3.0458,3.0458,3.0457,0,2.9769,2.9806,2.9883,2.9946,2.9964,3.001,3.0064,3.0107,3.0137,3.0201,3.0218,3.0265,3.0328,3.0363,3.0442,3.0458,3.0538,3.054,3.052,3.0524,3.0563,3.0559,3.0679,3.0697,3.0606,3.0606,3.0607,0,2.9812,2.9857,2.9926,2.9962,2.9995,3.0051,3.0089,3.0123,3.0162,3.0228,3.0264,3.0328,3.0381,3.0481,3.0523,3.0584,3.0589,3.0627,3.0598,3.0592,3.0593,3.0591,3.0597,3.0632,3.0633,3.0634,3.0634,0,2.9886,2.9903,2.9957,3.002,3.0066,3.0116,3.0166,3.0194,3.0236,3.028,3.0345,3.0386,3.0468,3.0533,3.0598,3.0631,3.0641,3.0643,3.0656,3.0651,3.0639,3.0649,3.0536,3.064,3.064,3.0639,3.0639,3.0639,2.9935,2.9977,3.0033,3.0095,3.0136,3.0183,3.0228,3.0265,3.032,3.039,3.0406,3.0476,3.0531,3.062,3.0655,3.071,3.0703,3.0721,3.0726,3.0731,3.0734,3.0628,3.0722,3.0721,3.0721,3.0721,3.0721,0,3.0012,3.0049,3.0106,3.0176,3.0225,3.0231,3.0287,3.0328,3.0389,3.044,3.0493,3.057,3.0633,3.0681,3.0746,3.0781,3.0788,3.0797,3.0796,3.0804,3.0735,3.0718,3.0791,3.0791,3.0791,3.0791,3.0791,3.0791,3.0058,3.0131,3.0155,3.025,3.0287,3.0356,3.0388,3.0433,3.0474,3.0559,3.0612,3.0643,3.0694,3.0763,3.0822,3.0834,3.0859,3.0868,3.0882,3.0816,3.0809,3.0802,3.0786,3.0873,3.0873,3.0947,3.0948,3.0948]}]]